GW2444 Weather Reports


Display with metric or nautical units.
time (UTC)temp
F
wind
direction
speed
MPH
gust
MPH
rain 1hr
in
rain 24hr
in
rain mn
in
humidity
%
barometer
mb
20260906111627 70 98 0.0 4.0 0.00 0.03 0.00 93 1013.7
20260906110125 70 0 0.0 4.0 0.00 0.03 0.00 93 1013.6
20260906104604 70 82 2.0 4.0 0.00 0.03 0.00 93 1013.4
20260906103109 70 0 0.0 4.0 0.00 0.03 0.00 93 1013.2
20260906101608 70 65 1.0 4.0 0.00 0.03 0.00 93 1013.0
20260906100108 70 94 1.0 4.0 0.00 0.03 0.00 93 1013.0
20260906094606 70 137 1.0 4.0 0.00 0.03 0.00 93 1012.9
20260906093108 70 99 3.0 6.0 0.00 0.03 0.00 93 1012.8
20260906091603 70 95 3.0 6.0 0.00 0.03 0.00 93 1012.9
20260906090105 70 98 2.0 4.0 0.00 0.03 0.00 93 1012.8
20260906084609 70 63 1.0 4.0 0.00 0.03 0.00 93 1013.0
20260906083105 70 85 1.0 3.0 0.00 0.03 0.00 93 1013.0
20260906081605 70 275 0.0 2.0 0.00 0.03 0.00 93 1013.1
20260906080105 70 0 0.0 1.0 0.00 0.03 0.00 93 1013.0
20260906074602 70 0 0.0 0.0 0.00 0.03 0.00 93 1012.7
20260906073104 70 0 0.0 2.0 0.00 0.03 0.00 93 1012.6
20260906071604 70 166 0.0 2.0 0.00 0.03 0.00 93 1012.4
20260906070107 70 224 0.0 2.0 0.00 0.03 0.00 93 1012.2
20260906064608 70 224 0.0 3.0 0.00 0.03 0.00 92 1012.4
20260906063106 71 0 0.0 2.0 0.00 0.03 0.00 92 1012.7
20260906061608 71 0 0.0 1.0 0.00 0.03 0.00 92 1012.9
20260906060112 71 0 0.0 1.0 0.00 0.03 0.00 92 1012.8
20260906054632 72 0 0.0 3.0 0.00 0.03 0.00 92 1012.8
20260906053105 72 0 0.0 2.0 0.00 0.03 0.00 92 1012.8
20260906051605 72 0 0.0 2.0 0.00 0.03 0.00 92 1012.9
20260906050108 72 0 0.0 4.0 0.00 0.03 0.00 92 1012.6
20260906044606 72 194 1.0 3.0 0.00 0.03 0.00 91 1012.9
20260906043104 72 233 0.0 2.0 0.00 0.03 0.00 91 1012.7
20260906041605 73 0 0.0 2.0 0.00 0.03 0.00 91 1012.6
20260906040114 73 0 0.0 3.0 0.00 0.03 0.00 91 1012.4
20260906034609 73 0 0.0 3.0 0.00 0.03 0.03 91 1012.6
20260906033131 73 160 0.0 4.0 0.00 0.03 0.03 90 1012.8
20260906031616 74 145 0.0 3.0 0.00 0.03 0.03 90 1012.9
20260906024608 74 0 0.0 0.0 0.00 0.03 0.03 89 1013.3
20260906023134 74 0 0.0 0.0 0.00 0.03 0.03 88 1013.3
20260906021615 75 0 0.0 1.0 0.00 0.03 0.03 88 1013.3
20260906020106 75 141 0.0 2.0 0.00 0.03 0.03 87 1013.2
20260906014606 76 0 0.0 3.0 0.00 0.03 0.03 86 1013.0
20260906013112 76 167 0.0 2.0 0.00 0.03 0.03 85 1012.6
20260906011607 77 167 0.0 2.0 0.00 0.03 0.03 83 1012.0
20260906010105 78 167 0.0 2.0 0.00 0.03 0.03 81 1011.9
20260906004605 78 0 2.0 4.0 0.00 0.03 0.03 78 1012.1
20260906003105 79 0 0.0 1.0 0.00 0.03 0.03 76 1012.0
20260906001605 80 0 0.0 1.0 0.00 0.03 0.03 73 1012.0
20260906000108 81 0 0.0 2.0 0.00 0.03 0.03 71 1011.9
20260905234608 82 39 0.0 3.0 0.00 0.03 0.03 70 1012.2
20260905233104 82 28 0.0 3.0 0.00 0.03 0.03 69 1012.3
20260905231634 83 33 0.0 3.0 0.00 0.03 0.03 69 1012.3
20260905230108 83 0 0.0 4.0 0.00 0.03 0.03 68 1012.3
20260905224615 83 26 3.0 8.0 0.00 0.03 0.03 67 1012.3
20260905223107 84 0 1.0 6.0 0.00 0.03 0.03 65 1012.4
20260905221606 85 330 2.0 6.0 0.00 0.03 0.03 63 1012.4
20260905220107 86 345 2.0 8.0 0.00 0.03 0.03 62 1012.2
20260905214605 86 351 1.0 9.0 0.00 0.03 0.03 62 1012.1
20260905213110 86 55 2.0 7.0 0.00 0.03 0.03 63 1012.1
20260905211612 87 10 2.0 7.0 0.00 0.03 0.03 63 1011.9
20260905210105 87 54 2.0 6.0 0.00 0.03 0.03 62 1011.7
20260905204618 86 354 3.0 9.0 0.00 0.03 0.03 63 1011.6
20260905203119 86 330 3.0 10.0 0.00 0.03 0.03 64 1011.9
20260905201610 86 311 5.0 12.0 0.00 0.03 0.03 62 1011.8
20260905200120 87 232 1.0 6.0 0.00 0.03 0.03 61 1012.1
20260905194612 87 0 0.0 7.0 0.00 0.03 0.03 59 1012.1
20260905193103 87 289 1.0 7.0 0.00 0.03 0.03 58 1012.3
20260905191606 86 167 0.0 4.0 0.00 0.03 0.03 62 1012.6
20260905190106 85 312 1.0 3.0 0.00 0.03 0.03 62 1013.0
20260905184621 85 0 0.0 6.0 0.00 0.04 0.03 63 1013.3
20260905183106 84 110 1.0 8.0 0.00 0.04 0.03 67 1013.5
20260905181603 84 0 0.0 4.0 0.00 0.04 0.03 68 1013.6
20260905180121 84 97 3.0 7.0 0.00 0.04 0.03 66 1013.8
20260905174607 83 325 1.0 4.0 0.00 0.04 0.03 70 1013.8
20260905173106 82 343 2.0 7.0 0.00 0.04 0.03 72 1014.0
20260905171607 80 62 1.0 7.0 0.00 0.04 0.03 75 1014.2
20260905170126 80 116 3.0 7.0 0.00 0.04 0.03 76 1014.1
20260905164606 78 70 3.0 6.0 0.00 0.04 0.03 79 1014.5
20260905163109 77 112 2.0 4.0 0.00 0.04 0.03 83 1014.8
20260905161607 77 330 1.0 3.0 0.00 0.04 0.03 85 1014.9
20260905160104 76 205 1.0 3.0 0.00 0.04 0.03 86 1015.1
20260905154615 75 204 1.0 10.0 0.00 0.04 0.03 87 1014.6
20260905153108 75 251 6.0 11.0 0.00 0.04 0.03 88 1014.9
20260905151614 75 262 2.0 8.0 0.00 0.04 0.03 88 1014.3
20260905150104 75 0 1.0 8.0 0.00 0.04 0.03 89 1014.0
20260905144609 74 0 1.0 11.0 0.00 0.04 0.03 91 1013.9
20260905143105 74 175 2.0 8.0 0.00 0.04 0.03 91 1014.0
20260905141606 74 145 1.0 6.0 0.03 0.04 0.03 91 1014.8
20260905140108 73 235 2.0 4.0 0.03 0.04 0.03 91 1015.2
20260905134608 73 335 1.0 3.0 0.03 0.04 0.03 91 1015.6
20260905133105 73 161 1.0 5.0 0.03 0.04 0.03 91 1015.4
20260905131608 73 42 3.0 5.0 0.00 0.01 0.00 91 1015.8
20260905130106 72 70 1.0 4.0 0.00 0.01 0.00 92 1015.6
20260905124603 72 44 3.0 11.0 0.00 0.01 0.00 92 1015.5
20260905123102 72 80 6.0 16.0 0.00 0.01 0.00 93 1015.4
20260905121606 73 102 3.0 9.0 0.00 0.01 0.00 94 1015.6
20260905120108 72 0 2.0 7.0 0.00 0.01 0.00 93 1014.3
20260905114604 72 46 4.0 17.0 0.00 0.01 0.00 94 1014.1
20260905113107 71 0 0.0 0.0 0.00 0.01 0.00 94 1012.9